Date,TemperatureHighF,TemperatureAvgF,TemperatureLowF,DewpointHighF,DewpointAvgF,DewpointLowF,HumidityHigh,HumidityAvg,HumidityLow,PressureMaxIn,PressureMinIn,WindSpeedMaxMPH,WindSpeedAvgMPH,GustSpeedMaxMPH,PrecipitationSumIn
2013-3-1,41.3,38.5,36.7,38.0,34.1,31.0,97,84,74,30.35,30.30,14,3,15,0.00
2013-3-2,40.5,37.7,36.0,33.0,31.6,31.0,83,79,71,30.34,30.25,7,2,11,0.00
2013-3-3,43.6,39.3,35.9,41.0,35.6,32.0,95,86,77,30.26,30.18,10,2,14,0.00
2013-3-4,51.7,40.8,32.3,38.0,33.6,30.0,91,76,56,30.18,29.85,13,5,16,0.00
2013-3-5,62.5,47.7,34.6,41.0,35.8,31.0,86,66,41,29.85,29.67,9,4,16,0.00
2013-3-6,60.9,51.1,42.2,44.0,39.0,35.0,78,65,49,29.67,29.54,6,2,9,0.00
2013-3-7,54.1,49.3,45.0,45.0,40.5,37.0,91,72,62,29.53,29.45,8,4,10,0.03
2013-3-8,57.6,50.1,45.9,51.0,46.9,43.0,95,89,79,29.48,29.44,9,4,13,0.11
2013-3-9,46.1,41.8,36.5,45.0,40.9,35.0,98,96,95,29.54,29.41,10,4,19,0.72
2013-3-10,36.6,33.3,30.4,36.0,30.0,24.0,97,88,75,29.73,29.53,17,5,18,0.09
2013-3-11,30.3,29.0,28.0,25.0,23.0,22.0,84,78,72,29.77,29.73,21,8,23,0.00
2013-3-12,32.6,28.8,26.1,23.0,19.4,15.0,83,69,48,29.75,29.70,18,7,24,0.00
2013-3-13,42.4,32.2,21.8,32.0,26.1,19.0,90,79,59,29.82,29.68,10,2,12,0.00
2013-3-14,38.4,33.3,27.1,31.0,27.0,22.0,91,78,56,29.98,29.79,10,2,16,0.02
2013-3-15,38.8,33.4,27.1,34.0,30.4,25.0,95,88,78,29.97,29.80,18,5,18,0.06
2013-3-16,44.8,41.5,39.0,36.0,32.2,27.0,83,70,55,29.79,29.52,17,8,24,0.01
2013-3-17,48.5,43.3,39.1,40.0,38.3,33.0,94,83,69,29.52,29.24,17,6,20,0.10
2013-3-18,47.7,42.4,37.4,41.0,38.2,36.0,96,85,73,29.32,29.23,11,4,18,0.05
2013-3-19,43.1,39.3,35.2,40.0,37.0,33.0,95,91,86,29.55,29.32,6,1,8,0.03
2013-3-20,38.5,35.3,33.0,37.0,31.5,27.0,95,86,78,29.97,29.54,12,5,17,0.02
2013-3-21,39.9,35.4,30.6,31.0,29.1,27.0,87,78,67,30.11,29.97,4,1,8,0.00
2013-3-22,40.7,33.7,28.2,32.0,28.1,26.0,94,80,69,30.11,29.91,20,11,30,0.00
2013-3-23,35.2,32.6,29.3,26.0,22.7,16.0,75,67,56,29.97,29.91,25,14,33,0.00
2013-3-24,36.1,30.8,25.7,16.0,10.4,4.0,64,44,29,29.99,29.92,24,13,32,0.00
2013-3-25,40.1,33.1,28.2,18.0,15.4,13.0,60,49,34,29.99,29.90,21,11,30,0.00
2013-3-26,40.8,33.5,26.9,19.0,17.3,15.0,67,53,35,29.95,29.87,20,10,28,0.00
2013-3-27,42.4,34.0,26.3,22.0,19.6,16.0,78,58,36,29.91,29.81,13,6,20,0.00
2013-3-28,39.7,33.5,28.1,27.0,23.2,19.0,83,67,56,29.85,29.79,12,4,16,0.00
2013-3-29,38.5,32.8,27.3,29.0,27.3,25.0,92,80,61,29.84,29.77,8,2,8,0.00
2013-3-30,40.3,34.2,29.2,31.0,28.9,27.0,95,81,60,29.90,29.76,9,3,13,0.00
2013-3-31,39.7,34.9,29.0,30.0,27.9,26.0,91,76,61,29.95,29.91,10,3,13,0.00